Location: ?????????
(54.7630°N, 39.4991°E)
Time: 19:00:20
(UTC+00:00)

Cosmos 1892 Rocket - Pass Details

Date: 14 April 2026
Orbit: 599 x 626 km, 82.5° (Epoch: 19 May)

Event Time Altitude Azimuth Distance (km) Brightness Sun altitude
Rises 21:38:17 0° 345° (NNW) 2,923 8.2 -25.5°
Reaches altitude 10° 21:40:34 10° 341° (NNW) 2,008 7.0 -25.5°
Enters shadow 21:44:20 50° 294° (WNW) 795 4.1 -25.4°
